| time (UTC) | temp F | wind direction | speed MPH | gust MPH | rain 1hr in | rain 24hr in | rain mn in | humidity % | barometer mb |
| 20260906022655 | 71 | 58 | 0.0 | 0.0 | 0.04 | 0.62 | 0.62 | 94 | 1012.4 |
| 20260906022155 | 71 | 58 | 0.0 | 0.0 | 0.04 | 0.61 | 0.61 | 94 | 1012.4 |
| 20260906021920 | 71 | 58 | 0.0 | 0.0 | 0.05 | 0.61 | 0.61 | 94 | 1012.5 |
| 20260906021150 | 72 | 58 | 0.0 | 0.0 | 0.05 | 0.61 | 0.61 | 94 | 1012.6 |
| 20260906020907 | 72 | 58 | 0.0 | 0.0 | 0.06 | 0.61 | 0.61 | 94 | 1012.6 |
| 20260906020149 | 72 | 58 | 0.0 | 0.0 | 0.07 | 0.61 | 0.61 | 94 | 1012.6 |
| 20260906015642 | 72 | 58 | 0.0 | 0.0 | 0.06 | 0.60 | 0.60 | 94 | 1012.4 |
| 20260906015405 | 72 | 58 | 0.0 | 0.0 | 0.07 | 0.60 | 0.60 | 94 | 1012.4 |
| 20260906014631 | 72 | 58 | 0.0 | 0.0 | 0.08 | 0.60 | 0.60 | 94 | 1012.4 |
| 20260906014126 | 72 | 58 | 0.0 | 0.0 | 0.08 | 0.59 | 0.59 | 94 | 1012.3 |
| 20260906013619 | 73 | 58 | 0.0 | 0.0 | 0.09 | 0.59 | 0.59 | 94 | 1012.3 |
| 20260906013113 | 73 | 58 | 0.0 | 1.0 | 0.09 | 0.58 | 0.58 | 94 | 1012.2 |
| 20260906012612 | 73 | 58 | 0.0 | 2.0 | 0.09 | 0.57 | 0.58 | 94 | 1012.2 |
| 20260906012315 | 73 | 58 | 0.0 | 2.0 | 0.10 | 0.57 | 0.57 | 94 | 1012.2 |
| 20260906011551 | 73 | 42 | 0.0 | 2.0 | 0.10 | 0.56 | 0.56 | 94 | 1012.1 |
| 20260906011045 | 73 | 62 | 0.0 | 2.0 | 0.10 | 0.55 | 0.56 | 94 | 1012.0 |
| 20260906010540 | 73 | 355 | 0.0 | 1.0 | 0.11 | 0.55 | 0.55 | 94 | 1011.8 |
| 20260906010235 | 73 | 355 | 0.0 | 1.0 | 0.11 | 0.53 | 0.53 | 94 | 1011.6 |
| 20260906010120 | 73 | 355 | 0.0 | 1.0 | 0.11 | 0.54 | 0.54 | 94 | 1011.7 |
| 20260906005021 | 73 | 355 | 0.0 | 1.0 | 0.12 | 0.53 | 0.53 | 94 | 1011.5 |
| 20260906004515 | 73 | 55 | 0.0 | 1.0 | 0.12 | 0.52 | 0.52 | 93 | 1011.5 |
| 20260906004010 | 73 | 55 | 0.0 | 1.0 | 0.13 | 0.51 | 0.51 | 93 | 1011.5 |
| 20260906003504 | 73 | 55 | 0.0 | 1.0 | 0.12 | 0.50 | 0.50 | 93 | 1011.4 |
| 20260906002957 | 73 | 69 | 0.0 | 2.0 | 0.13 | 0.49 | 0.49 | 93 | 1011.5 |
| 20260906002759 | 73 | 69 | 0.0 | 2.0 | 0.13 | 0.48 | 0.48 | 93 | 1011.5 |
| 20260906002724 | 74 | 157 | 0.0 | 0.0 | 0.13 | 0.47 | 0.47 | 93 | 1011.4 |
| 20260906001440 | 74 | 157 | 0.0 | 0.0 | 0.13 | 0.46 | 0.46 | 93 | 1011.4 |
| 20260906000933 | 74 | 157 | 0.0 | 0.0 | 0.13 | 0.45 | 0.45 | 93 | 1011.3 |
| 20260906000433 | 74 | 157 | 0.0 | 0.0 | 0.14 | 0.44 | 0.44 | 93 | 1011.3 |
| 20260905235922 | 74 | 157 | 0.0 | 0.0 | 0.14 | 0.43 | 0.43 | 93 | 1011.3 |
| 20260905235634 | 74 | 157 | 0.0 | 0.0 | 0.13 | 0.41 | 0.42 | 93 | 1011.3 |
| 20260905234908 | 74 | 157 | 0.0 | 0.0 | 0.13 | 0.40 | 0.41 | 93 | 1011.3 |
| 20260905234404 | 74 | 157 | 0.0 | 0.0 | 0.15 | 0.40 | 0.40 | 93 | 1011.3 |
| 20260905233858 | 74 | 157 | 0.0 | 0.0 | 0.14 | 0.38 | 0.38 | 93 | 1011.3 |
| 20260905233351 | 74 | 157 | 0.0 | 0.0 | 0.14 | 0.37 | 0.37 | 93 | 1011.3 |
| 20260905232845 | 74 | 157 | 0.0 | 0.0 | 0.15 | 0.36 | 0.36 | 93 | 1011.3 |
| 20260905232340 | 74 | 157 | 0.0 | 0.0 | 0.15 | 0.35 | 0.35 | 93 | 1011.3 |
| 20260905231834 | 74 | 157 | 0.0 | 0.0 | 0.16 | 0.34 | 0.34 | 92 | 1011.3 |
| 20260905231327 | 75 | 157 | 0.0 | 0.0 | 0.15 | 0.32 | 0.33 | 92 | 1011.2 |
| 20260905230821 | 75 | 157 | 0.0 | 1.0 | 0.16 | 0.31 | 0.31 | 92 | 1011.3 |
| 20260905230316 | 75 | 157 | 0.0 | 1.0 | 0.16 | 0.30 | 0.30 | 92 | 1011.3 |
| 20260905225809 | 75 | 157 | 0.0 | 0.0 | 0.17 | 0.29 | 0.29 | 91 | 1011.1 |
| 20260905225307 | 75 | 157 | 0.0 | 1.0 | 0.16 | 0.27 | 0.28 | 91 | 1011.1 |
| 20260905224753 | 75 | 157 | 0.0 | 1.0 | 0.16 | 0.26 | 0.26 | 91 | 1011.2 |
| 20260905224507 | 75 | 157 | 0.0 | 0.0 | 0.15 | 0.25 | 0.25 | 90 | 1011.2 |
| 20260905223741 | 75 | 157 | 0.0 | 0.0 | 0.14 | 0.24 | 0.24 | 90 | 1011.3 |
| 20260905223235 | 75 | 157 | 0.0 | 0.0 | 0.12 | 0.22 | 0.22 | 89 | 1011.2 |
| 20260905222729 | 75 | 157 | 0.0 | 0.0 | 0.11 | 0.21 | 0.21 | 88 | 1011.2 |
| 20260905222223 | 76 | 157 | 0.0 | 0.0 | 0.10 | 0.20 | 0.20 | 88 | 1011.2 |
| 20260905221718 | 76 | 157 | 0.0 | 0.0 | 0.08 | 0.18 | 0.18 | 87 | 1011.2 |
| 20260905221213 | 76 | 157 | 0.0 | 1.0 | 0.06 | 0.16 | 0.17 | 86 | 1011.0 |
| 20260905220706 | 76 | 157 | 0.0 | 1.0 | 0.05 | 0.15 | 0.15 | 86 | 1011.1 |
| 20260905220159 | 77 | 157 | 0.0 | 0.0 | 0.03 | 0.13 | 0.14 | 85 | 1011.3 |
| 20260905215653 | 78 | 215 | 1.0 | 4.0 | 0.02 | 0.12 | 0.12 | 84 | 1011.2 |
| 20260905215147 | 78 | 126 | 1.0 | 4.0 | 0.01 | 0.11 | 0.11 | 85 | 1011.3 |
| 20260905214642 | 78 | 159 | 0.0 | 2.0 | 0.00 | 0.10 | 0.10 | 84 | 1010.9 |
| 20260905214355 | 78 | 259 | 0.0 | 2.0 | 0.00 | 0.10 | 0.10 | 84 | 1010.9 |
| 20260905214116 | 79 | 289 | 1.0 | 7.0 | 0.00 | 0.10 | 0.10 | 84 | 1010.9 |
| 20260905213122 | 79 | 263 | 0.0 | 7.0 | 0.00 | 0.10 | 0.10 | 84 | 1010.8 |
| 20260905212618 | 79 | 64 | 0.0 | 0.0 | 0.00 | 0.10 | 0.10 | 84 | 1010.6 |
| 20260905212111 | 78 | 64 | 0.0 | 0.0 | 0.00 | 0.10 | 0.10 | 84 | 1010.5 |
| 20260905211605 | 78 | 64 | 0.0 | 0.0 | 0.00 | 0.10 | 0.10 | 84 | 1010.5 |
| 20260905211058 | 78 | 64 | 0.0 | 0.0 | 0.00 | 0.10 | 0.10 | 86 | 1010.5 |
| 20260905210553 | 78 | 64 | 0.0 | 0.0 | 0.00 | 0.10 | 0.10 | 85 | 1010.4 |
| 20260905210048 | 79 | 64 | 0.0 | 0.0 | 0.00 | 0.10 | 0.10 | 83 | 1010.4 |
| 20260905205541 | 80 | 64 | 0.0 | 0.0 | 0.00 | 0.10 | 0.10 | 83 | 1010.4 |
| 20260905205035 | 80 | 64 | 0.0 | 0.0 | 0.00 | 0.11 | 0.10 | 81 | 1010.4 |
| 20260905204529 | 79 | 64 | 0.0 | 0.0 | 0.00 | 0.13 | 0.10 | 82 | 1010.4 |
| 20260905204023 | 79 | 64 | 0.0 | 0.0 | 0.00 | 0.16 | 0.10 | 82 | 1010.4 |
| 20260905203745 | 79 | 64 | 0.0 | 0.0 | 0.00 | 0.19 | 0.10 | 84 | 1010.5 |
| 20260905203453 | 79 | 64 | 0.0 | 0.0 | 0.00 | 0.23 | 0.10 | 83 | 1010.5 |
| 20260905202947 | 79 | 64 | 0.0 | 0.0 | 0.00 | 0.29 | 0.10 | 83 | 1010.5 |
| 20260905201959 | 79 | 64 | 0.0 | 0.0 | 0.00 | 0.35 | 0.10 | 82 | 1010.5 |
| 20260905201459 | 80 | 64 | 0.0 | 0.0 | 0.00 | 0.36 | 0.10 | 82 | 1010.5 |
| 20260905200959 | 80 | 64 | 0.0 | 1.0 | 0.00 | 0.36 | 0.10 | 76 | 1010.4 |
| 20260905200459 | 80 | 64 | 0.0 | 1.0 | 0.00 | 0.36 | 0.10 | 75 | 1010.5 |
| 20260905200450 | 80 | 64 | 0.0 | 2.0 | 0.00 | 0.36 | 0.10 | 77 | 1010.5 |
| 20260905195459 | 80 | 12 | 0.0 | 3.0 | 0.00 | 0.36 | 0.10 | 76 | 1010.4 |
| 20260905194955 | 80 | 5 | 0.0 | 3.0 | 0.00 | 0.36 | 0.10 | 76 | 1010.5 |
| 20260905194453 | 81 | 67 | 1.0 | 3.0 | 0.00 | 0.36 | 0.10 | 74 | 1010.6 |
| 20260905193951 | 81 | 77 | 1.0 | 3.0 | 0.00 | 0.36 | 0.10 | 76 | 1010.7 |
| 20260905193451 | 81 | 291 | 1.0 | 3.0 | 0.00 | 0.36 | 0.10 | 77 | 1010.8 |
| 20260905193212 | 81 | 273 | 1.0 | 4.0 | 0.00 | 0.36 | 0.10 | 74 | 1010.8 |
| 20260905192449 | 80 | 104 | 1.0 | 4.0 | 0.00 | 0.36 | 0.10 | 77 | 1010.8 |
| 20260905191949 | 80 | 82 | 0.0 | 3.0 | 0.00 | 0.36 | 0.10 | 78 | 1010.8 |
| 20260905191448 | 80 | 321 | 0.0 | 4.0 | 0.00 | 0.36 | 0.10 | 76 | 1010.8 |
| 20260905190951 | 80 | 33 | 1.0 | 4.0 | 0.00 | 0.36 | 0.10 | 80 | 1010.9 |
| 20260905190945 | 80 | 80 | 1.0 | 3.0 | 0.00 | 0.36 | 0.10 | 81 | 1010.9 |
| 20260905190431 | 81 | 55 | 1.0 | 3.0 | 0.00 | 0.36 | 0.10 | 79 | 1011.0 |
| 20260905185447 | 80 | 0 | 0.0 | 3.0 | 0.00 | 0.36 | 0.10 | 78 | 1011.1 |
| 20260905184947 | 81 | 318 | 0.0 | 3.0 | 0.00 | 0.36 | 0.10 | 80 | 1011.1 |
| 20260905184439 | 80 | 62 | 0.0 | 3.0 | 0.00 | 0.36 | 0.10 | 81 | 1011.0 |
| 20260905183940 | 81 | 73 | 0.0 | 2.0 | 0.00 | 0.36 | 0.10 | 82 | 1011.1 |
| 20260905183438 | 80 | 58 | 0.0 | 1.0 | 0.00 | 0.36 | 0.10 | 88 | 1011.1 |
| 20260905183211 | 78 | 195 | 0.0 | 2.0 | 0.00 | 0.36 | 0.10 | 90 | 1011.1 |
| 20260905182438 | 78 | 195 | 0.0 | 2.0 | 0.01 | 0.36 | 0.10 | 88 | 1011.1 |
| 20260905181936 | 78 | 96 | 0.0 | 1.0 | 0.01 | 0.36 | 0.10 | 90 | 1011.0 |
| 20260905181437 | 78 | 96 | 0.0 | 1.0 | 0.02 | 0.36 | 0.10 | 90 | 1011.0 |
| 20260905181432 | 78 | 78 | 0.0 | 1.0 | 0.02 | 0.36 | 0.10 | 92 | 1011.0 |
| 20260905180659 | 77 | 111 | 0.0 | 0.0 | 0.03 | 0.36 | 0.10 | 93 | 1011.0 |
| 20260905175936 | 76 | 119 | 0.0 | 0.0 | 0.04 | 0.36 | 0.10 | 94 | 1011.1 |
| 20260905175440 | 76 | 111 | 0.0 | 0.0 | 0.05 | 0.36 | 0.10 | 94 | 1011.1 |
| 20260905174934 | 76 | 296 | 0.0 | 0.0 | 0.05 | 0.36 | 0.10 | 94 | 1011.1 |
| 20260905174435 | 76 | 212 | 0.0 | 1.0 | 0.06 | 0.36 | 0.10 | 95 | 1011.0 |
| 20260905173933 | 76 | 140 | 0.0 | 2.0 | 0.07 | 0.36 | 0.10 | 96 | 1011.2 |
| 20260905173701 | 76 | 140 | 0.0 | 2.0 | 0.08 | 0.36 | 0.10 | 96 | 1011.1 |
| 20260905172932 | 75 | 140 | 0.0 | 1.0 | 0.08 | 0.36 | 0.10 | 95 | 1011.1 |
| 20260905172431 | 75 | 140 | 0.0 | 3.0 | 0.07 | 0.35 | 0.09 | 96 | 1011.2 |
| 20260905171933 | 75 | 18 | 0.0 | 3.0 | 0.08 | 0.35 | 0.09 | 96 | 1011.4 |
| 20260905171700 | 75 | 186 | 0.0 | 1.0 | 0.07 | 0.34 | 0.08 | 95 | 1011.4 |
| 20260905170933 | 75 | 209 | 0.0 | 1.0 | 0.07 | 0.34 | 0.08 | 96 | 1011.5 |
| 20260905170427 | 75 | 209 | 0.0 | 1.0 | 0.06 | 0.33 | 0.07 | 94 | 1011.5 |
| 20260905165929 | 75 | 209 | 0.0 | 1.0 | 0.05 | 0.32 | 0.06 | 93 | 1011.7 |
| 20260905165429 | 76 | 209 | 0.0 | 1.0 | 0.04 | 0.31 | 0.06 | 91 | 1012.0 |
| 20260905165150 | 76 | 209 | 0.0 | 1.0 | 0.04 | 0.31 | 0.05 | 90 | 1012.1 |
| 20260905164648 | 76 | 209 | 0.0 | 1.0 | 0.03 | 0.30 | 0.04 | 90 | 1012.4 |
| 20260905163928 | 77 | 209 | 0.0 | 1.0 | 0.02 | 0.29 | 0.03 | 89 | 1012.7 |
| 20260905163427 | 77 | 71 | 0.0 | 0.0 | 0.01 | 0.28 | 0.03 | 89 | 1012.9 |
| 20260905162926 | 77 | 71 | 0.0 | 1.0 | 0.01 | 0.28 | 0.02 | 89 | 1013.0 |
| 20260905162858 | 77 | 71 | 0.0 | 1.0 | 0.01 | 0.28 | 0.02 | 88 | 1012.9 |
| 20260905161924 | 77 | 71 | 0.0 | 0.0 | 0.00 | 0.27 | 0.01 | 88 | 1012.9 |
| 20260905161422 | 77 | 71 | 0.0 | 0.0 | 0.00 | 0.27 | 0.01 | 88 | 1012.9 |
| 20260905161151 | 77 | 71 | 0.0 | 0.0 | 0.00 | 0.27 | 0.01 | 88 | 1013.0 |
| 20260905160416 | 77 | 71 | 0.0 | 0.0 | 0.00 | 0.27 | 0.01 | 87 | 1013.0 |
| 20260905155910 | 77 | 71 | 0.0 | 0.0 | 0.00 | 0.27 | 0.01 | 87 | 1013.1 |
| 20260905155404 | 77 | 71 | 0.0 | 1.0 | 0.00 | 0.27 | 0.01 | 87 | 1013.0 |
| 20260905154900 | 77 | 71 | 0.0 | 1.0 | 0.00 | 0.27 | 0.01 | 87 | 1013.0 |
| 20260905154400 | 77 | 73 | 0.0 | 1.0 | 0.00 | 0.27 | 0.01 | 86 | 1012.9 |
| 20260905154344 | 77 | 73 | 0.0 | 1.0 | 0.00 | 0.27 | 0.01 | 86 | 1012.8 |
| 20260905153401 | 77 | 73 | 0.0 | 2.0 | 0.00 | 0.27 | 0.01 | 86 | 1012.6 |
| 20260905152900 | 77 | 107 | 0.0 | 2.0 | 0.00 | 0.27 | 0.01 | 86 | 1012.6 |
| 20260905152359 | 77 | 75 | 0.0 | 1.0 | 0.00 | 0.27 | 0.01 | 86 | 1012.5 |
| 20260905151857 | 77 | 107 | 0.0 | 2.0 | 0.00 | 0.27 | 0.01 | 86 | 1012.5 |
| 20260905151623 | 77 | 59 | 0.0 | 2.0 | 0.00 | 0.27 | 0.01 | 86 | 1012.7 |
| 20260905151123 | 77 | 32 | 0.0 | 2.0 | 0.00 | 0.27 | 0.01 | 85 | 1012.8 |
| 20260905150357 | 77 | 65 | 0.0 | 1.0 | 0.00 | 0.27 | 0.01 | 86 | 1012.9 |
| 20260905145857 | 77 | 96 | 0.0 | 1.0 | 0.00 | 0.27 | 0.01 | 86 | 1012.8 |
| 20260905145358 | 77 | 125 | 0.0 | 3.0 | 0.00 | 0.27 | 0.01 | 86 | 1012.8 |
| 20260905144859 | 77 | 125 | 0.0 | 3.0 | 0.00 | 0.27 | 0.01 | 86 | 1012.8 |
| 20260905144357 | 77 | 67 | 0.0 | 3.0 | 0.00 | 0.27 | 0.01 | 85 | 1012.9 |
| 20260905143900 | 78 | 31 | 0.0 | 3.0 | 0.00 | 0.27 | 0.01 | 85 | 1012.9 |
| 20260905143355 | 78 | 78 | 1.0 | 3.0 | 0.00 | 0.27 | 0.01 | 85 | 1012.9 |
| 20260905142855 | 77 | 58 | 0.0 | 3.0 | 0.00 | 0.27 | 0.01 | 86 | 1012.8 |
| 20260905142354 | 78 | 31 | 0.0 | 3.0 | 0.00 | 0.27 | 0.01 | 86 | 1012.8 |
| 20260905141849 | 77 | 42 | 0.0 | 3.0 | 0.00 | 0.27 | 0.01 | 85 | 1012.8 |
| 20260905141342 | 77 | 29 | 0.0 | 3.0 | 0.00 | 0.27 | 0.01 | 86 | 1012.8 |
| 20260905140836 | 77 | 123 | 0.0 | 2.0 | 0.00 | 0.27 | 0.01 | 87 | 1012.8 |
| 20260905140331 | 77 | 123 | 0.0 | 2.0 | 0.00 | 0.27 | 0.01 | 86 | 1012.7 |
| 20260905135824 | 77 | 65 | 0.0 | 2.0 | 0.00 | 0.27 | 0.01 | 87 | 1012.5 |
| 20260905135318 | 76 | 65 | 0.0 | 2.0 | 0.00 | 0.27 | 0.01 | 88 | 1012.4 |
| 20260905134812 | 76 | 87 | 0.0 | 2.0 | 0.00 | 0.27 | 0.01 | 89 | 1012.2 |
| 20260905134306 | 76 | 31 | 0.0 | 2.0 | 0.00 | 0.27 | 0.01 | 89 | 1012.1 |
| 20260905133800 | 76 | 90 | 1.0 | 3.0 | 0.00 | 0.27 | 0.01 | 89 | 1012.2 |
| 20260905133254 | 76 | 76 | 0.0 | 3.0 | 0.00 | 0.27 | 0.01 | 90 | 1012.1 |
| 20260905132748 | 75 | 89 | 1.0 | 3.0 | 0.00 | 0.27 | 0.01 | 91 | 1012.0 |
| 20260905132242 | 74 | 138 | 1.0 | 4.0 | 0.00 | 0.27 | 0.01 | 93 | 1012.0 |
| 20260905131736 | 74 | 97 | 1.0 | 4.0 | 0.00 | 0.27 | 0.01 | 94 | 1012.0 |
| 20260905131231 | 73 | 111 | 0.0 | 1.0 | 0.00 | 0.27 | 0.01 | 96 | 1011.9 |
| 20260905130724 | 73 | 86 | 0.0 | 1.0 | 0.00 | 0.27 | 0.01 | 97 | 1012.1 |
| 20260905130218 | 72 | 86 | 0.0 | 1.0 | 0.00 | 0.27 | 0.01 | 96 | 1012.1 |
| 20260905125712 | 72 | 57 | 0.0 | 1.0 | 0.00 | 0.27 | 0.01 | 96 | 1012.0 |
| 20260905125206 | 71 | 67 | 0.0 | 4.0 | 0.00 | 0.27 | 0.01 | 96 | 1012.0 |
| 20260905124700 | 71 | 67 | 0.0 | 4.0 | 0.00 | 0.27 | 0.01 | 96 | 1012.0 |
| 20260905124154 | 71 | 346 | 0.0 | 1.0 | 0.00 | 0.27 | 0.01 | 96 | 1012.0 |
| 20260905123648 | 71 | 26 | 0.0 | 0.0 | 0.00 | 0.27 | 0.01 | 96 | 1012.0 |
| 20260905123142 | 71 | 26 | 0.0 | 0.0 | 0.00 | 0.27 | 0.01 | 96 | 1012.1 |
| 20260905122635 | 71 | 26 | 0.0 | 1.0 | 0.00 | 0.27 | 0.01 | 96 | 1012.0 |
| 20260905122131 | 71 | 26 | 0.0 | 1.0 | 0.00 | 0.27 | 0.01 | 96 | 1012.0 |
| 20260905121624 | 70 | 26 | 0.0 | 1.0 | 0.00 | 0.27 | 0.01 | 96 | 1011.8 |
| 20260905121118 | 70 | 26 | 0.0 | 1.0 | 0.00 | 0.27 | 0.01 | 96 | 1011.9 |
| 20260905120613 | 70 | 26 | 0.0 | 1.0 | 0.00 | 0.27 | 0.01 | 96 | 1011.9 |
| 20260905120331 | 70 | 29 | 0.0 | 1.0 | 0.00 | 0.27 | 0.01 | 96 | 1011.9 |
| 20260905115600 | 69 | 19 | 0.0 | 0.0 | 0.00 | 0.27 | 0.01 | 96 | 1011.8 |
| 20260905115054 | 69 | 19 | 0.0 | 0.0 | 0.00 | 0.27 | 0.01 | 96 | 1011.9 |
| 20260905114548 | 69 | 19 | 0.0 | 0.0 | 0.00 | 0.27 | 0.01 | 96 | 1011.8 |
| 20260905114041 | 69 | 20 | 0.0 | 0.0 | 0.00 | 0.27 | 0.01 | 96 | 1011.7 |
| 20260905113536 | 69 | 20 | 0.0 | 0.0 | 0.00 | 0.27 | 0.01 | 96 | 1011.6 |
| 20260905113248 | 69 | 20 | 0.0 | 1.0 | 0.00 | 0.27 | 0.01 | 96 | 1011.6 |
| 20260905112524 | 69 | 19 | 0.0 | 1.0 | 0.00 | 0.27 | 0.01 | 95 | 1011.6 |
| 20260905112017 | 69 | 19 | 0.0 | 2.0 | 0.00 | 0.27 | 0.01 | 95 | 1011.6 |
| 20260905111512 | 69 | 19 | 0.0 | 2.0 | 0.00 | 0.27 | 0.01 | 95 | 1011.6 |
| 20260905111226 | 69 | 19 | 0.0 | 2.0 | 0.00 | 0.27 | 0.01 | 95 | 1011.7 |
| 20260905110500 | 69 | 19 | 0.0 | 2.0 | 0.00 | 0.27 | 0.01 | 95 | 1011.7 |
| 20260905105955 | 69 | 19 | 0.0 | 2.0 | 0.00 | 0.27 | 0.01 | 95 | 1011.6 |
| 20260905105448 | 69 | 19 | 0.0 | 2.0 | 0.00 | 0.27 | 0.01 | 95 | 1011.4 |
| 20260905104942 | 69 | 19 | 0.0 | 1.0 | 0.00 | 0.27 | 0.01 | 95 | 1011.3 |
| 20260905104436 | 69 | 20 | 0.0 | 1.0 | 0.00 | 0.27 | 0.01 | 95 | 1011.1 |
| 20260905103930 | 69 | 19 | 0.0 | 0.0 | 0.00 | 0.27 | 0.01 | 95 | 1011.0 |
| 20260905103425 | 69 | 20 | 0.0 | 0.0 | 0.00 | 0.27 | 0.01 | 95 | 1011.0 |
| 20260905102919 | 69 | 20 | 0.0 | 0.0 | 0.00 | 0.27 | 0.01 | 95 | 1010.9 |
| 20260905102633 | 69 | 19 | 0.0 | 0.0 | 0.00 | 0.27 | 0.01 | 95 | 1010.9 |
| 20260905101906 | 69 | 20 | 0.0 | 0.0 | 0.00 | 0.27 | 0.01 | 95 | 1011.0 |
| 20260905101627 | 69 | 20 | 0.0 | 0.0 | 0.00 | 0.27 | 0.01 | 95 | 1010.9 |
| 20260905100854 | 69 | 20 | 0.0 | 0.0 | 0.00 | 0.27 | 0.01 | 95 | 1010.8 |
| 20260905100348 | 69 | 19 | 0.0 | 0.0 | 0.00 | 0.27 | 0.01 | 95 | 1010.8 |
| 20260905095842 | 69 | 20 | 0.0 | 0.0 | 0.00 | 0.27 | 0.01 | 95 | 1010.7 |
| 20260905095336 | 69 | 20 | 0.0 | 0.0 | 0.00 | 0.27 | 0.01 | 95 | 1010.7 |
| 20260905094830 | 69 | 19 | 0.0 | 1.0 | 0.00 | 0.27 | 0.01 | 95 | 1010.7 |
| 20260905094330 | 69 | 19 | 0.0 | 1.0 | 0.00 | 0.27 | 0.01 | 95 | 1010.7 |
| 20260905093827 | 69 | 19 | 0.0 | 1.0 | 0.00 | 0.27 | 0.01 | 95 | 1010.7 |
| 20260905093550 | 69 | 351 | 0.0 | 1.0 | 0.00 | 0.27 | 0.01 | 95 | 1010.7 |
| 20260905092824 | 69 | 351 | 0.0 | 1.0 | 0.00 | 0.27 | 0.01 | 95 | 1010.7 |
| 20260905092545 | 69 | 351 | 0.0 | 1.0 | 0.00 | 0.27 | 0.01 | 95 | 1010.6 |
| 20260905091821 | 69 | 350 | 0.0 | 1.0 | 0.00 | 0.27 | 0.01 | 95 | 1010.6 |
| 20260905091811 | 69 | 287 | 0.0 | 1.0 | 0.00 | 0.27 | 0.01 | 95 | 1010.6 |
| 20260905090819 | 69 | 287 | 0.0 | 1.0 | 0.00 | 0.27 | 0.01 | 95 | 1010.8 |
| 20260905090317 | 69 | 286 | 0.0 | 1.0 | 0.00 | 0.27 | 0.01 | 95 | 1010.7 |
| 20260905085817 | 69 | 286 | 0.0 | 0.0 | 0.00 | 0.27 | 0.01 | 95 | 1010.7 |
| 20260905085318 | 69 | 286 | 0.0 | 0.0 | 0.00 | 0.27 | 0.01 | 95 | 1010.7 |
| 20260905084815 | 69 | 286 | 0.0 | 0.0 | 0.00 | 0.27 | 0.01 | 95 | 1010.8 |
| 20260905084314 | 69 | 286 | 0.0 | 0.0 | 0.00 | 0.27 | 0.01 | 95 | 1010.8 |
| 20260905083812 | 69 | 286 | 0.0 | 0.0 | 0.00 | 0.27 | 0.01 | 95 | 1010.7 |
| 20260905083310 | 69 | 286 | 0.0 | 0.0 | 0.00 | 0.27 | 0.01 | 95 | 1010.8 |
| 20260905082809 | 70 | 286 | 0.0 | 0.0 | 0.00 | 0.27 | 0.01 | 95 | 1010.8 |
| 20260905082310 | 70 | 286 | 0.0 | 0.0 | 0.00 | 0.27 | 0.01 | 95 | 1010.8 |
| 20260905081808 | 70 | 286 | 0.0 | 0.0 | 0.00 | 0.27 | 0.01 | 95 | 1010.8 |
| 20260905081528 | 70 | 286 | 0.0 | 0.0 | 0.00 | 0.27 | 0.01 | 95 | 1010.9 |
| 20260905080805 | 70 | 286 | 0.0 | 0.0 | 0.00 | 0.27 | 0.01 | 95 | 1011.0 |
| 20260905080307 | 70 | 286 | 0.0 | 1.0 | 0.00 | 0.27 | 0.01 | 95 | 1011.0 |
| 20260905080031 | 70 | 286 | 0.0 | 1.0 | 0.00 | 0.27 | 0.01 | 95 | 1011.0 |
| 20260905075306 | 70 | 286 | 0.0 | 0.0 | 0.00 | 0.27 | 0.01 | 95 | 1011.1 |
| 20260905074805 | 70 | 286 | 0.0 | 0.0 | 0.00 | 0.27 | 0.01 | 95 | 1011.3 |
| 20260905074305 | 70 | 286 | 0.0 | 0.0 | 0.01 | 0.27 | 0.01 | 95 | 1011.3 |
| 20260905074026 | 70 | 286 | 0.0 | 0.0 | 0.01 | 0.27 | 0.01 | 95 | 1011.3 |
| 20260905073530 | 70 | 286 | 0.0 | 0.0 | 0.01 | 0.27 | 0.01 | 95 | 1011.2 |
| 20260905072800 | 70 | 286 | 0.0 | 0.0 | 0.01 | 0.27 | 0.01 | 95 | 1011.2 |
| 20260905072305 | 70 | 286 | 0.0 | 0.0 | 0.01 | 0.27 | 0.01 | 95 | 1011.3 |
| 20260905071802 | 70 | 286 | 0.0 | 0.0 | 0.01 | 0.27 | 0.01 | 95 | 1011.3 |
| 20260905071301 | 70 | 286 | 0.0 | 0.0 | 0.01 | 0.27 | 0.01 | 95 | 1011.3 |
| 20260905070802 | 70 | 286 | 0.0 | 0.0 | 0.01 | 0.27 | 0.01 | 95 | 1011.4 |
| 20260905070300 | 70 | 286 | 0.0 | 0.0 | 0.01 | 0.27 | 0.01 | 95 | 1011.4 |
| 20260905065802 | 70 | 286 | 0.0 | 0.0 | 0.01 | 0.27 | 0.01 | 95 | 1011.4 |
| 20260905065301 | 70 | 286 | 0.0 | 0.0 | 0.01 | 0.27 | 0.01 | 95 | 1011.5 |
| 20260905064802 | 70 | 286 | 0.0 | 0.0 | 0.01 | 0.27 | 0.01 | 95 | 1011.5 |
| 20260905064257 | 70 | 286 | 0.0 | 0.0 | 0.00 | 0.26 | 0.01 | 95 | 1011.6 |
| 20260905063757 | 71 | 286 | 0.0 | 0.0 | 0.00 | 0.26 | 0.00 | 95 | 1011.8 |
| 20260905063258 | 71 | 286 | 0.0 | 0.0 | 0.00 | 0.26 | 0.00 | 95 | 1011.9 |
| 20260905062755 | 71 | 286 | 0.0 | 0.0 | 0.00 | 0.26 | 0.00 | 95 | 1012.0 |
| 20260905062253 | 71 | 286 | 0.0 | 1.0 | 0.00 | 0.26 | 0.00 | 95 | 1012.0 |
| 20260905061752 | 71 | 286 | 0.0 | 1.0 | 0.00 | 0.26 | 0.00 | 95 | 1012.2 |
| 20260905061250 | 71 | 9 | 0.0 | 0.0 | 0.00 | 0.26 | 0.00 | 95 | 1012.3 |
| 20260905060748 | 71 | 9 | 0.0 | 1.0 | 0.00 | 0.27 | 0.00 | 95 | 1012.3 |
| 20260905060247 | 71 | 9 | 0.0 | 1.0 | 0.00 | 0.27 | 0.00 | 95 | 1012.2 |
| 20260905055746 | 71 | 9 | 0.0 | 1.0 | 0.00 | 0.27 | 0.00 | 95 | 1012.3 |
| 20260905055247 | 71 | 9 | 0.0 | 1.0 | 0.00 | 0.27 | 0.00 | 95 | 1012.2 |
| 20260905054746 | 71 | 9 | 0.0 | 0.0 | 0.00 | 0.27 | 0.00 | 95 | 1012.3 |
| 20260905054245 | 71 | 9 | 0.0 | 0.0 | 0.00 | 0.27 | 0.00 | 95 | 1012.5 |
| 20260905053745 | 71 | 9 | 0.0 | 0.0 | 0.00 | 0.27 | 0.00 | 95 | 1012.5 |
| 20260905053507 | 71 | 9 | 0.0 | 0.0 | 0.00 | 0.27 | 0.00 | 95 | 1012.5 |
| 20260905052745 | 71 | 9 | 0.0 | 0.0 | 0.00 | 0.28 | 0.00 | 95 | 1012.5 |
| 20260905052239 | 71 | 9 | 0.0 | 1.0 | 0.00 | 0.29 | 0.00 | 95 | 1012.5 |
| 20260905051733 | 71 | 9 | 0.0 | 1.0 | 0.00 | 0.30 | 0.00 | 94 | 1012.5 |
| 20260905051227 | 71 | 9 | 0.0 | 1.0 | 0.00 | 0.30 | 0.00 | 94 | 1012.4 |
| 20260905050721 | 71 | 10 | 0.0 | 0.0 | 0.00 | 0.32 | 0.00 | 94 | 1012.6 |
| 20260905050215 | 71 | 10 | 0.0 | 0.0 | 0.00 | 0.34 | 0.00 | 94 | 1012.7 |
| 20260905045709 | 71 | 10 | 0.0 | 0.0 | 0.00 | 0.35 | 0.00 | 94 | 1012.7 |
| 20260905045203 | 71 | 10 | 0.0 | 0.0 | 0.00 | 0.37 | 0.00 | 94 | 1012.8 |
| 20260905044658 | 71 | 10 | 0.0 | 0.0 | 0.00 | 0.40 | 0.00 | 94 | 1012.8 |
| 20260905044150 | 71 | 10 | 0.0 | 1.0 | 0.00 | 0.43 | 0.00 | 94 | 1012.8 |
| 20260905043645 | 71 | 10 | 0.0 | 1.0 | 0.00 | 0.46 | 0.00 | 94 | 1013.0 |
| 20260905043402 | 71 | 10 | 0.0 | 1.0 | 0.00 | 0.50 | 0.00 | 94 | 1013.0 |
| 20260905042633 | 71 | 43 | 0.0 | 1.0 | 0.00 | 0.53 | 0.00 | 94 | 1012.9 |
| 20260905042127 | 71 | 5 | 0.0 | 2.0 | 0.00 | 0.56 | 0.00 | 94 | 1013.0 |
| 20260905041621 | 71 | 329 | 0.0 | 2.0 | 0.00 | 0.57 | 0.00 | 94 | 1013.1 |
| 20260905041116 | 72 | 196 | 0.0 | 1.0 | 0.00 | 0.57 | 0.00 | 94 | 1013.1 |
| 20260905040609 | 72 | 196 | 0.0 | 0.0 | 0.00 | 0.57 | 0.00 | 94 | 1013.1 |
| 20260905040329 | 72 | 196 | 0.0 | 0.0 | 0.00 | 0.57 | 0.00 | 94 | 1013.1 |
| 20260905035828 | 72 | 196 | 0.0 | 1.0 | 0.00 | 0.57 | 0.57 | 94 | 1013.2 |
| 20260905035058 | 72 | 196 | 0.0 | 1.0 | 0.00 | 0.57 | 0.57 | 94 | 1013.2 |
| 20260905034554 | 72 | 196 | 0.0 | 1.0 | 0.00 | 0.57 | 0.57 | 94 | 1013.2 |
| 20260905034316 | 72 | 196 | 0.0 | 1.0 | 0.00 | 0.57 | 0.57 | 94 | 1013.1 |
| 20260905033553 | 72 | 196 | 0.0 | 0.0 | 0.00 | 0.57 | 0.57 | 94 | 1013.2 |
| 20260905033049 | 72 | 196 | 0.0 | 0.0 | 0.00 | 0.57 | 0.57 | 94 | 1013.2 |
| 20260905032546 | 72 | 196 | 0.0 | 1.0 | 0.00 | 0.57 | 0.57 | 94 | 1013.1 |
| 20260905032045 | 72 | 196 | 0.0 | 1.0 | 0.00 | 0.57 | 0.57 | 94 | 1013.2 |
| 20260905031544 | 72 | 196 | 0.0 | 1.0 | 0.00 | 0.57 | 0.57 | 94 | 1013.2 |
| 20260905031310 | 72 | 196 | 0.0 | 1.0 | 0.00 | 0.57 | 0.57 | 94 | 1013.2 |
| 20260905030543 | 73 | 196 | 0.0 | 1.0 | 0.00 | 0.57 | 0.57 | 94 | 1013.4 |
| 20260905030044 | 73 | 148 | 0.0 | 0.0 | 0.00 | 0.57 | 0.57 | 94 | 1013.2 |
| 20260905025544 | 73 | 148 | 0.0 | 0.0 | 0.00 | 0.58 | 0.57 | 94 | 1013.0 |
| 20260905025041 | 73 | 148 | 0.0 | 1.0 | 0.00 | 0.61 | 0.57 | 94 | 1013.1 |
| 20260905024539 | 73 | 148 | 0.0 | 1.0 | 0.00 | 0.63 | 0.57 | 94 | 1013.4 |
| 20260905024259 | 73 | 148 | 0.0 | 1.0 | 0.00 | 0.63 | 0.57 | 94 | 1013.2 |
| 20260905023537 | 73 | 153 | 0.0 | 1.0 | 0.00 | 0.63 | 0.57 | 94 | 1013.4 |